[Date Prev][Date Next][Thread Prev][Thread Next] - [Date Index][Thread Index][Author Index]

2 Line ISS Keps 2-22



ISS
1 25544U 98067A   04053.15282407  .00014813  00000-0  13939-3 0  2438
2 25544  51.6276 196.5411 0006428 194.3510 160.3749 15.67344023300108

----
Via the sarex mailing list at AMSAT.ORG courtesy of AMSAT-NA.
To unsubscribe, send "unsubscribe sarex" to Majordomo@amsat.org



AMSAT Top AMSAT Home